This is the latest recevied weather packets stored in our database for station/object KD4IZ-13. If no packets are shown the sender has not sent any weather packets the latest 10 day(s).
| Time | Temp. | Humidity | Pressure | Rain* | Wind** | Luminosity | Snow |
|---|---|---|---|---|---|---|---|
| 1778093948 | 17.78° C | 97% | 1009.7 hPa | 0 mm | - | 386 W/m² | - |
| 1778093645 | 17.78° C | 97% | 1009.7 hPa | 0 mm | - | 272 W/m² | - |
| 1778093342 | 17.78° C | 97% | 1009.8 hPa | 0 mm | - | 300 W/m² | - |
| 1778093039 | 17.78° C | 98% | 1009.8 hPa | 0 mm | - | 452 W/m² | - |
| 1778092736 | 17.22° C | 97% | 1009.7 hPa | 0 mm | - | 379 W/m² | - |
| 1778092431 | 17.22° C | 98% | 1009.8 hPa | 0 mm | - | 306 W/m² | - |
| 1778092129 | 17.22° C | 99% | 1009.9 hPa | 0 mm | - | 475 W/m² | - |
| 1778091826 | 16.67° C | 99% | 1009.9 hPa | 0 mm | - | 364 W/m² | - |
| 1778091523 | 16.67° C | 99% | 1010.1 hPa | 0 mm | - | 350 W/m² | - |
| 1778091221 | 16.67° C | 99% | 1010.1 hPa | 0 mm | - | 306 W/m² | - |
| 1778090918 | 16.67° C | 99% | 1010.3 hPa | 0 mm | - | 161 W/m² | - |
| 1778090614 | 16.11° C | 99% | 1010.2 hPa | 0 mm | - | 203 W/m² | - |
| 1778090310 | 16.11° C | 99% | 1010.3 hPa | 0 mm | - | 176 W/m² | - |
| 1778090007 | 15.56° C | 99% | 1010.3 hPa | 0 mm | - | 148 W/m² | - |
| 1778089704 | 15.56° C | 99% | 1010.5 hPa | 0 mm | - | 140 W/m² | - |
| 1778089402 | 15.56° C | 99% | 1010.3 hPa | 0 mm | - | 140 W/m² | - |
| 1778089099 | 15.56° C | 99% | 1010.1 hPa | 0 mm | - | 119 W/m² | - |
| 1778088796 | 15.56° C | 99% | 1010.2 hPa | 0 mm | - | 91 W/m² | - |
| 1778088493 | 15.56° C | 99% | 1010.3 hPa | 0 mm | - | 94 W/m² | - |
| 1778088189 | 15.56° C | 99% | 1010.2 hPa | 0 mm | - | 186 W/m² | - |
| 1778087887 | 15.56° C | 99% | 1009.9 hPa | 0 mm | - | 139 W/m² | - |
| 1778087584 | 15.56° C | 99% | 1010.2 hPa | 0 mm | - | 149 W/m² | - |
| 1778087282 | 15.56° C | 99% | 1010.4 hPa | 0 mm | - | 133 W/m² | - |
| 1778086977 | 15.56° C | 99% | 1010.3 hPa | 0 mm | - | 85 W/m² | - |
| 1778086676 | 15° C | 99% | 1010 hPa | 0 mm | - | 144 W/m² | - |
* Rain latest hour (hover to see other rain measurements)
** Current wind speed in m/s (hover to see current wind gust speed)